Location: Daytona Beach
(29.2106°N, 81.0231°W)
Time: 00:01:08
(UTC-04:00)

PSAT 2 - Pass Details

Date: 25 September 2021
Orbit: 299 x 725 km, 28.5° (Epoch: 15 October)

Event Time Altitude Azimuth Distance (km) Brightness Sun altitude
Rises 20:42:46 0° 276° (W) 3,117 ? -19.6°
Reaches altitude 10° 20:45:15 10° 272° (W) 2,215 ? -20.1°
Maximum altitude 20:50:25 54° 196° (SSW) 879 ? -21.2°
Enters shadow 20:51:54 40° 146° (SE) 1,049 ? -21.5°
